Location: Unspecified
(58.7730°N, 5.8460°E)
Time: 12:01:07
(UTC+02:00)

Cosmos 2058 - Visible Passes

Search period start: 29 August 2014 00:00
Search period end: 08 September 2014 00:00
Orbit: 570 x 595 km, 82.5° (Epoch: 26 August)

Date Brightness Start Highest point End Pass type
(mag) Time Alt. Az. Time Alt. Az. Time Alt. Az.
29 Aug 4.5 01:29:29 10° NW 01:32:47 23° W 01:33:26 22° W visible
29 Aug 5.0 22:21:27 10° NNE 22:23:56 15° NE 22:26:23 10° E visible
29 Aug 2.9 23:57:40 10° N 00:01:50 74° ENE 00:02:46 51° SE visible
30 Aug 4.9 01:35:35 10° NW 01:38:28 18° W 01:39:09 18° W visible
30 Aug 4.8 22:27:00 10° N 22:29:56 18° NE 22:32:07 13° E visible
31 Aug 2.8 00:03:29 10° NNW 00:07:39 86° WSW 00:08:30 56° S visible
31 Aug 5.2 01:41:50 10° NW 01:44:07 15° W 01:44:53 14° W visible
31 Aug 4.5 22:32:37 10° N 22:35:55 22° ENE 22:37:51 16° E visible
01 Sep 3.0 00:09:20 10° NNW 00:13:27 66° W 00:14:14 52° SSW visible
01 Sep 5.4 01:48:24 10° WNW 01:49:45 11° WNW 01:50:37 11° W visible
01 Sep 4.2 22:38:17 10° N 22:41:52 27° ENE 22:43:36 21° E visible
02 Sep 3.4 00:15:12 10° NNW 00:19:14 50° W 00:19:59 44° SW visible
02 Sep 3.9 22:43:59 10° N 22:47:48 34° ENE 22:49:21 25° ESE visible
03 Sep 3.8 00:21:06 10° NNW 00:24:59 39° W 00:25:44 35° WSW visible
03 Sep 3.5 22:49:42 10° N 22:53:41 43° ENE 22:55:07 31° ESE visible
04 Sep 4.2 00:27:03 10° NNW 00:30:42 30° W 00:31:30 28° WSW visible
04 Sep 5.1 21:19:45 10° NNE 21:21:27 12° NE 21:23:09 10° ENE visible
04 Sep 3.1 22:55:28 10° N 22:59:33 55° ENE 23:00:53 37° SE visible
05 Sep 4.6 00:33:02 10° NNW 00:36:24 24° W 00:37:16 22° WSW visible
05 Sep 4.9 21:25:05 10° NNE 21:27:29 15° NE 21:29:51 10° E visible
05 Sep 2.9 23:01:14 10° N 23:05:24 71° ENE 23:06:40 43° SE visible
06 Sep 4.9 00:39:06 10° NW 00:42:04 19° W 00:43:03 18° WSW visible
06 Sep 4.7 21:30:36 10° NNE 21:33:28 18° NE 21:36:04 11° E visible
06 Sep 2.8 23:07:02 10° NNW 23:11:13 89° WSW 23:12:27 45° S visible
07 Sep 5.2 00:45:18 10° NW 00:47:42 15° W 00:48:50 14° W visible
07 Sep 4.4 21:36:11 10° N 21:39:26 22° ENE 21:41:52 14° ESE visible
07 Sep 3.0 23:12:52 10° NNW 23:17:00 69° W 23:18:15 42° SSW visible
